When you browse on this site, cookies collect data to enhance your experience and personalize the content and advertising you see.
Visit our Privacy Policy to learn more. By continuing to use the site, you agree to this use of cookies and data.
  • In Czech Republic
  • List of Countries
  • For 7 days
  • Water Temperature
  • Weather Map
  • Weather Widgets
  • user-avatar
    Login

    Hourly Weather Wlora

    Today, 24 January, Friday

    Time Temperature Precipitation Wind Pressure Humidity
    00:00 +8°C° 0 mm 4 mps 771 mmHg 53%
    01:00 +8°C° 0 mm 4 mps 771 mmHg 55%
    02:00 +8°C° 0 mm 5 mps 771 mmHg 56%
    03:00 +8°C° 0 mm 6 mps 771 mmHg 57%
    04:00 +6°C° 0 mm 7 mps 771 mmHg 58%
    05:00 +6°C° 0 mm 7 mps 772 mmHg 58%
    06:00 +6°C° 0 mm 7 mps 772 mmHg 59%
    07:00 +6°C° 0 mm 8 mps 772 mmHg 59%
    08:00 +9°C° 0 mm 8 mps 772 mmHg 60%
    09:00 +10°C° 0 mm 8 mps 773 mmHg 62%
    10:00 +11°C° 0 mm 8 mps 773 mmHg 63%
    11:00 +12°C° 0 mm 8 mps 772 mmHg 63%
    12:00 +13°C° 0 mm 9 mps 772 mmHg 62%
    13:00 +13°C° 0 mm 9 mps 772 mmHg 62%
    14:00 +13°C° 0 mm 8 mps 772 mmHg 66%
    15:00 +12°C° 0 mm 8 mps 771 mmHg 70%
    16:00 +12°C° 0 mm 7 mps 771 mmHg 74%
    17:00 +11°C° 0 mm 7 mps 771 mmHg 77%
    18:00 +10°C° 0 mm 7 mps 771 mmHg 80%
    19:00 +10°C° 0 mm 7 mps 771 mmHg 82%
    20:00 +9°C° 0 mm 7 mps 771 mmHg 83%
    21:00 +9°C° 0 mm 7 mps 771 mmHg 84%
    22:00 +9°C° 0 mm 7 mps 771 mmHg 84%
    23:00 +9°C° 0 mm 7 mps 771 mmHg 85%

    Tomorrow, 25 January, Saturday

    Time Temperature Precipitation Wind Pressure Humidity
    00:00 +9°C° 0 mm 7 mps 771 mmHg 86%
    01:00 +9°C° 0 mm 6 mps 770 mmHg 87%
    02:00 +9°C° 0.1 mm 6 mps 770 mmHg 86%
    03:00 +9°C° 0.1 mm 6 mps 770 mmHg 85%
    04:00 +9°C° 0.1 mm 6 mps 770 mmHg 85%
    05:00 +9°C° 0.1 mm 6 mps 770 mmHg 84%
    06:00 +9°C° 0.1 mm 7 mps 770 mmHg 83%
    07:00 +8°C° 0.1 mm 7 mps 770 mmHg 83%
    08:00 +10°C° 0.1 mm 7 mps 769 mmHg 81%
    09:00 +11°C° 0.1 mm 7 mps 769 mmHg 78%
    10:00 +12°C° 0.1 mm 7 mps 769 mmHg 76%
    11:00 +12°C° 0.1 mm 7 mps 769 mmHg 74%
    12:00 +14°C° 0.1 mm 7 mps 769 mmHg 72%
    13:00 +14°C° 0.1 mm 7 mps 769 mmHg 71%
    14:00 +14°C° 0.1 mm 7 mps 768 mmHg 73%
    15:00 +14°C° 0.1 mm 7 mps 768 mmHg 76%
    16:00 +13°C° 0.1 mm 6 mps 768 mmHg 78%
    17:00 +13°C° 0.1 mm 6 mps 768 mmHg 80%
    18:00 +11°C° 0.1 mm 6 mps 768 mmHg 82%
    19:00 +11°C° 0.1 mm 7 mps 768 mmHg 84%
    20:00 +10°C° 0 mm 7 mps 768 mmHg 85%
    21:00 +10°C° 0 mm 7 mps 768 mmHg 85%
    22:00 +10°C° 0 mm 7 mps 768 mmHg 85%
    23:00 +10°C° 0.1 mm 7 mps 768 mmHg 85%

    Day after tomorrow, 26 January, Sunday

    Time Temperature Precipitation Wind Pressure Humidity
    00:00 +10°C° 0.1 mm 7 mps 768 mmHg 85%
    01:00 +10°C° 0.1 mm 7 mps 768 mmHg 85%
    02:00 +10°C° 0 mm 7 mps 767 mmHg 85%
    03:00 +10°C° 0 mm 8 mps 767 mmHg 84%
    04:00 +9°C° 0 mm 8 mps 767 mmHg 83%
    05:00 +9°C° 0 mm 8 mps 766 mmHg 82%
    06:00 +9°C° 0 mm 8 mps 766 mmHg 81%
    07:00 +9°C° 0 mm 8 mps 766 mmHg 80%
    08:00 +10°C° 0 mm 8 mps 766 mmHg 77%
    09:00 +11°C° 0 mm 8 mps 766 mmHg 74%
    10:00 +12°C° 0 mm 8 mps 766 mmHg 70%
    11:00 +13°C° 0.1 mm 8 mps 766 mmHg 70%
    12:00 +13°C° 0.1 mm 8 mps 765 mmHg 70%
    13:00 +15°C° 0.1 mm 8 mps 764 mmHg 70%
    14:00 +13°C° 0.1 mm 8 mps 764 mmHg 72%
    15:00 +13°C° 0.1 mm 9 mps 764 mmHg 75%
    16:00 +12°C° 0.1 mm 9 mps 764 mmHg 77%
    17:00 +12°C° 0.2 mm 9 mps 764 mmHg 79%
    18:00 +12°C° 0.2 mm 8 mps 764 mmHg 80%
    19:00 +11°C° 0.2 mm 8 mps 764 mmHg 81%
    20:00 +11°C° 0.4 mm 8 mps 764 mmHg 82%
    21:00 +11°C° 0.4 mm 7 mps 763 mmHg 83%
    22:00 +11°C° 0.4 mm 7 mps 763 mmHg 84%
    23:00 +11°C° 1 mm 6 mps 763 mmHg 85%

    27 January, Monday

    Time Temperature Precipitation Wind Pressure Humidity
    00:00 +12°C° 1 mm 5 mps 763 mmHg 85%
    01:00 +12°C° 1 mm 5 mps 763 mmHg 85%
    02:00 +12°C° 1.4 mm 4 mps 763 mmHg 88%
    03:00 +12°C° 1.4 mm 4 mps 762 mmHg 90%
    04:00 +12°C° 1.4 mm 3 mps 762 mmHg 93%
    05:00 +11°C° 1.1 mm 3 mps 762 mmHg 93%
    06:00 +12°C° 1.1 mm 2 mps 762 mmHg 93%
    07:00 +12°C° 1.1 mm 2 mps 762 mmHg 93%
    08:00 +12°C° 0.8 mm 2 mps 762 mmHg 92%
    09:00 +12°C° 0.8 mm 2 mps 762 mmHg 91%
    10:00 +12°C° 0.8 mm 2 mps 763 mmHg 91%
    11:00 +12°C° 0.2 mm 2 mps 762 mmHg 87%
    12:00 +11°C° 0.2 mm 3 mps 762 mmHg 84%
    13:00 +12°C° 0.2 mm 3 mps 762 mmHg 80%
    14:00 +12°C° 0.2 mm 3 mps 762 mmHg 81%
    15:00 +12°C° 0.2 mm 4 mps 762 mmHg 81%
    16:00 +12°C° 0.2 mm 4 mps 762 mmHg 82%
    17:00 +12°C° 0 mm 4 mps 762 mmHg 83%
    18:00 +11°C° 0 mm 4 mps 762 mmHg 83%
    19:00 +10°C° 0 mm 4 mps 763 mmHg 84%
    20:00 +10°C° 0 mm 4 mps 763 mmHg 85%
    21:00 +10°C° 0 mm 4 mps 763 mmHg 85%
    22:00 +10°C° 0 mm 4 mps 764 mmHg 85%
    23:00 +8°C° 0 mm 4 mps 764 mmHg 84%

    28 January, Tuesday

    Time Temperature Precipitation Wind Pressure Humidity
    00:00 +8°C° 0 mm 4 mps 764 mmHg 84%
    01:00 +9°C° 0 mm 3 mps 763 mmHg 83%
    02:00 +9°C° 0 mm 3 mps 764 mmHg 83%
    03:00 +9°C° 0 mm 3 mps 764 mmHg 83%
    04:00 +9°C° 0 mm 3 mps 764 mmHg 83%
    05:00 +9°C° 0 mm 3 mps 764 mmHg 83%
    06:00 +9°C° 0 mm 2 mps 764 mmHg 83%
    07:00 +10°C° 0 mm 2 mps 764 mmHg 83%
    08:00 +12°C° 0 mm 1 mps 764 mmHg 78%
    09:00 +12°C° 0 mm 1 mps 764 mmHg 74%
    10:00 +13°C° 0 mm 1 mps 764 mmHg 70%
    11:00 +14°C° 0 mm 1 mps 764 mmHg 68%
    12:00 +15°C° 0 mm 2 mps 763 mmHg 65%
    13:00 +15°C° 0 mm 2 mps 763 mmHg 63%
    14:00 +14°C° 0 mm 3 mps 763 mmHg 66%
    15:00 +13°C° 0 mm 4 mps 763 mmHg 70%
    16:00 +13°C° 0 mm 5 mps 763 mmHg 73%
    17:00 +11°C° 0 mm 6 mps 763 mmHg 76%
    18:00 +10°C° 0 mm 6 mps 763 mmHg 79%
    19:00 +10°C° 0 mm 7 mps 763 mmHg 82%
    20:00 +10°C° 0 mm 7 mps 763 mmHg 83%
    21:00 +10°C° 0 mm 7 mps 763 mmHg 84%
    22:00 +10°C° 0 mm 7 mps 763 mmHg 85%
    23:00 +10°C° 0 mm 8 mps 763 mmHg 84%

    29 January, Wednesday

    Time Temperature Precipitation Wind Pressure Humidity
    00:00 +10°C° 0 mm 8 mps 763 mmHg 83%
    01:00 +10°C° 0 mm 9 mps 763 mmHg 83%
    02:00 +10°C° 0 mm 8 mps 763 mmHg 82%
    03:00 +11°C° 0 mm 8 mps 763 mmHg 81%
    04:00 +11°C° 0 mm 8 mps 763 mmHg 81%
    05:00 +11°C° 0 mm 8 mps 763 mmHg 82%
    06:00 +11°C° 0 mm 8 mps 762 mmHg 82%
    07:00 +11°C° 0 mm 7 mps 762 mmHg 83%
    08:00 +12°C° 0.1 mm 7 mps 763 mmHg 80%
    09:00 +14°C° 0.1 mm 7 mps 763 mmHg 77%
    10:00 +15°C° 0.1 mm 7 mps 763 mmHg 74%
    11:00 +15°C° 0.1 mm 6 mps 763 mmHg 73%
    12:00 +15°C° 0.1 mm 6 mps 762 mmHg 72%
    13:00 +16°C° 0.1 mm 6 mps 762 mmHg 72%
    14:00 +15°C° 0.1 mm 5 mps 762 mmHg 74%
    15:00 +15°C° 0.1 mm 5 mps 762 mmHg 75%
    16:00 +15°C° 0.1 mm 5 mps 762 mmHg 77%
    17:00 +14°C° 0 mm 5 mps 762 mmHg 80%
    18:00 +13°C° 0 mm 4 mps 762 mmHg 83%
    19:00 +12°C° 0 mm 4 mps 763 mmHg 86%
    20:00 +12°C° 0 mm 4 mps 763 mmHg 85%
    21:00 +12°C° 0 mm 4 mps 763 mmHg 85%
    22:00 +12°C° 0 mm 3 mps 763 mmHg 85%
    23:00 +12°C° 0 mm 3 mps 763 mmHg 85%
    Show more